Tracking 28052 objects as of 25-Sep-2023
HD Live streaming from Space Station
objects crossing your sky now

HAWK-3B

Track HAWK-3B now!
10-day predictions


NORAD ID: 48931
Int'l Code: 2021-059BE
Perigee: 498.0 km
Apogee: 515.3 km
Inclination: 97.6 °
Period: 94.6 minutes
Semi major axis: 6877 km
RCS: Unknown
Launch date: June 30, 2021
Source: United States (US)
Launch site: AIR FORCE EASTERN TEST RANGE (AFETR)
Your satellite tracking list
Your tracking list is empty




NASA's NSSDC Master Catalog

Two Line Element Set (TLE):
1 48931U 21059BE  23268.34798709  .00016491  00000-0  72079-3 0  9999
2 48931  97.5970  43.1017 0012641 293.5369  66.4538 15.22099035124512
Source of the keplerian elements: AFSPC